Regional Weather Roundup
Issued by NWS

Home | Current Version | Previous Version | Text Only | Print | Product List | Glossary On
Versions: 1 2 3 4 5 6 7 8 9 10 11 12 13 14 15 16 17 18 19 20 21 22 23 24 25 26 27 28 29
000
ASUS43 KDMX 302307
RWRIA

WEATHER ROUNDUP FOR IOWA
NATIONAL WEATHER SERVICE DES MOINES IA
600 PM CDT THU OCT 30 2014

NOTE: "FAIR" INDICATES FEW OR NO CLOUDS BELOW 12,000 FEET WITH NO
SIGNIFICANT WEATHER AND/OR OBSTRUCTIONS TO VISIBILITY.

* - THESE STATIONS ARE NOT NWS STATIONS...THUS NOT UNDER NWS
QUALITY CONTROL.  THEY ALSO DO NOT REPORT WEATHER SUCH
AS PRECIPITATION OR FOG.

IAZ001>003-012>014-020>022-031>034-043>046-310000-
   NORTHWEST IOWA

CITY           SKY/WX    TMP DP  RH WIND       PRES   REMARKS
CARROLL *      MOCLDY    55  36  47 N18       30.11R
CHEROKEE *     CLOUDY    50  39  66 N15G23    30.18R
DENISON *      CLOUDY    55  39  54 N17G26    30.12R
LE MARS *      CLOUDY    50  39  66 N22G28    30.22R
ORANGE CITY *  CLOUDY    48  39  71 N17G25    30.22R
SHELDON *      CLOUDY    46  39  76 N21G29    30.21R
SIOUX CITY     CLOUDY    51  41  68 NW18G31   30.21R
SPENCER        CLOUDY    48  39  71 N21G32    30.19R
STORM LAKE *   CLOUDY    50  39  66 N17G29    30.17R
$$

IAZ055>058-069>071-079>083-090>094-310000-
   SOUTHWEST IOWA

CITY           SKY/WX    TMP DP  RH WIND       PRES   REMARKS
ATLANTIC *     PTCLDY    57  39  51 N14G20    30.10R
AUDUBON *      CLEAR     55  32  41 N15G21    30.12R
CLARINDA *     CLEAR     59  41  51 NW15G22   30.10R
COUNCIL BLFS * CLEAR     55  41  58 NW18G30   30.13R
CRESTON *      CLEAR     57  39  51 N13G20    30.08R
HARLAN  *      CLOUDY    57  37  47 N14G23    30.15R
LAMONI         CLEAR     57  40  52 NW8       30.05R
RED OAK *      CLEAR     59  43  55 NW15G22   30.10R
SHENANDOAH *   CLEAR     59  41  51 N18G28    30.11R
$$

IAZ047>049-059>061-072>074-084-310000-
   CENTRAL IOWA

CITY           SKY/WX    TMP DP  RH WIND       PRES   REMARKS
AMES           PTCLDY    55  37  50 NW13      30.07R
ANKENY *       MOCLDY    57  39  51 N12G17    30.06R
CHARITON *     MOCLDY    59  39  47 N9        30.04R
DES MOINES     PTCLDY    59  37  44 NW12      30.06R
GRINNELL*      PTCLDY    54  36  50 NE5       30.06R
KNOXVILLE *    MOCLDY    57  37  47 NE5       30.03R
MARSHALLTOWN   CLOUDY    55  37  50 NE9       30.06R
PELLA *        PTCLDY    57  39  51 NE3       30.06R
PERRY *          N/A     55  37  50 N9        30.09R
$$

IAZ004>006-015-016-023>025-035-036-310000-
   NORTH CENTRAL IOWA

CITY           SKY/WX    TMP DP  RH WIND       PRES   REMARKS
ALGONA *       CLOUDY    50  39  66 N14G23    30.15R
CLARION *      CLOUDY    52  37  58 N12       30.11R
ESTHERVILLE    CLOUDY    46  38  73 N22G30    30.18R
FORT DODGE *   CLOUDY    54  36  50 N10G20    30.12R
MASON CITY     CLOUDY    50  38  63 N15       30.12R
FOREST CITY *  CLOUDY    48  37  66 N14       30.13R
IOWA FALLS *   CLOUDY    54  37  54 N13G20    30.09R
$$

IAZ007>011-017>019-026>030-037>042-050>054-066-310000-
   NORTHEAST IOWA

CITY           SKY/WX    TMP DP  RH WIND       PRES   REMARKS
CEDAR RAPIDS   MOCLDY    50  38  63 NE7       30.05S
CHARLES CITY * CLOUDY    48  37  66 NW5       30.10R
CLINTON *      CLOUDY    48  36  61 NE3       30.10R
DECORAH *      CLOUDY    46  39  76 CALM      30.08S
DUBUQUE        CLOUDY    47  39  74 N3        30.07S
MONTICELLO *   CLOUDY    50  39  66 CALM      30.07R
OELWEIN *      CLOUDY    50  37  62 N5        30.09R
WATERLOO       CLOUDY    51  36  56 N7        30.08R
$$

IAZ064-065-067-068-078-310000-
   EAST CENTRAL IOWA

CITY           SKY/WX    TMP DP  RH WIND       PRES   REMARKS
DAVENPORT      CLOUDY    49  37  63 NE5       30.07R
IOWA CITY      CLOUDY    52  38  58 E6        30.07R
MT. PLEASANT * CLOUDY    54  39  58 NE6       30.05R
MUSCATINE *    CLOUDY    52  37  58 SE3       30.07R
QUAD CITIES    CLOUDY    50  37  61 NE5       30.07R
$$

IAZ062-063-075>077-085>089-095>099-310000-
   SOUTHEAST IOWA

CITY           SKY/WX    TMP DP  RH WIND       PRES   REMARKS
BURLINGTON     CLOUDY    52  41  66 E6        30.04R
FAIRFIELD *    CLOUDY    54  39  58 NE7       30.05R
FORT MADISON * MOCLDY    54  43  66 E6        30.05R
KEOKUK *       CLOUDY    54  43  66 E6        30.03R
OSKALOOSA *      N/A     54  37  54 E7        30.05R
CENTERVILLE *  PTCLDY    59  41  51 N6        30.05R
OTTUMWA        MOCLDY    55  38  52 E8        30.04R
WASHINGTON *   CLOUDY    54  39  58 E7        30.05R
$$

ABBREVIATIONS USED IN REMARKS
   TC - TEMPERATURES IN CELSIUS
  WCI - WIND CHILL INDEX
   HX - HEAT INDEX
  VSB - VISIBILITY
$$




USA.gov is the U.S. government's official web portal to all federal, state and local government web resources and services.